Weather History for Holdrege, NE

Change the Weather History Date:

Saturday, July 6, 2013

  Actual Average Record
Temperature  
Mean Temperature 84 °F -  
Max Temperature 98 °F 87 °F 105 °F (1954)
Min Temperature 69 °F 62 °F 53 °F (1953)
Cooling Degree Days 18    
Growing Degree Days 34 (Base 50)    
Moisture  
Dew Point 59 °F    
Average Humidity 47    
Maximum Humidity 76    
Minimum Humidity 25    
Precipitation  
Precipitation 0.07 in - - ()
Sea Level Pressure  
Sea Level Pressure 29.79 in    
Wind  
Wind Speed 15 mph (SSE)    
Max Wind Speed 21 mph    
Max Gust Speed 28 mph    
Visibility 10 miles    
Events Rain , Thunderstorm    
Averages and records for this station are not official NWS values.
T = Trace of Precipitation, MM = Missing Value Source: NWS Daily Summary

Daily Weather History Graph

Daily Weather History Graph

Search for Another Location

Airport:

Trip Planner

Search our weather history database for the weather conditions in past years. The results will help you decide how hot, cold, wet, or windy it might be!

Date:

Astronomy

Jul. 06, 2013 Rise Set
Actual Time 6:13 AM CDT 9:10 PM CDT
Civil Twilight 5:40 AM CDT 9:43 PM CDT
Nautical Twilight 4:59 AM CDT 10:24 PM CDT
Astronomical Twilight 4:11 AM CDT 11:12 PM CDT
Moon 5:01 AM CDT (7/6) 7:52 PM CDT (7/6)
Length of Visible Light 16h 02m
Length of Day
14h 56m
Waning Crescent, 2% of the Moon is Illuminated
Jul 6
Waning Crescent
Jul 8
New
Jul 15
First Quarter
Jul 22
Full
Jul 29
Last Quarter

Hourly Weather History & Observations

Time (CDT) Temp. Heat Index Dew Point Humidity Pressure Visibility Wind Dir Wind Speed Gust Speed Precip Events Conditions
12:15 AM 78.1 °F - 59.4 °F 52% 29.83 in 10.0 mi SSE 19.6 mph 26.5 mph N/A Rain Light Rain
12:35 AM 77.9 °F - 60.1 °F 54% 29.83 in 10.0 mi SSE 18.4 mph 26.5 mph N/A   Clear
12:55 AM 78.4 °F - 59.4 °F 52% 29.82 in 10.0 mi SSE 20.7 mph 27.6 mph N/A   Clear
1:15 AM 77.9 °F - 59.9 °F 54% 29.82 in 10.0 mi SSE 19.6 mph 27.6 mph N/A   Clear
1:35 AM 77.4 °F - 59.9 °F 55% 29.83 in 10.0 mi SSE 18.4 mph 23.0 mph N/A Rain Light Rain
1:55 AM 76.3 °F - 60.8 °F 59% 29.84 in 10.0 mi SSE 16.1 mph 20.7 mph N/A Rain Light Rain
2:15 AM 76.3 °F - 59.9 °F 57% 29.84 in 10.0 mi SSE 13.8 mph 21.9 mph N/A   Clear
2:35 AM 76.3 °F - 59.2 °F 55% 29.83 in 10.0 mi SE 17.3 mph - N/A   Clear
2:55 AM 75.7 °F - 59.0 °F 56% 29.83 in 10.0 mi SE 18.4 mph 23.0 mph N/A   Clear
3:15 AM 75.6 °F - 59.0 °F 56% 29.82 in 10.0 mi SE 17.3 mph 20.7 mph N/A   Clear
3:35 AM 74.8 °F - 59.0 °F 58% 29.83 in 10.0 mi SSE 11.5 mph - N/A   Clear
3:55 AM 74.3 °F - 59.5 °F 60% 29.84 in 10.0 mi South 11.5 mph - N/A Rain , Thunderstorm Light Thunderstorms and Rain
4:15 AM 72.0 °F - 61.5 °F 70% 29.86 in 10.0 mi South 9.2 mph - 0.02 in Rain , Thunderstorm Light Thunderstorms and Rain
4:35 AM 71.8 °F - 61.7 °F 70% 29.84 in 10.0 mi SE 10.4 mph - 0.05 in Rain , Thunderstorm Thunderstorms and Rain
4:55 AM 70.3 °F - 62.2 °F 75% 29.82 in 10.0 mi ESE 13.8 mph - 0.07 in Rain Light Rain
5:15 AM 70.2 °F - 62.2 °F 76% 29.81 in 10.0 mi ESE 13.8 mph - N/A   Clear
5:35 AM 70.3 °F - 61.9 °F 74% 29.80 in 10.0 mi ESE 16.1 mph 21.9 mph N/A   Clear
5:55 AM 70.9 °F - 61.3 °F 72% 29.80 in 10.0 mi SE 15.0 mph - N/A   Clear
6:15 AM 71.4 °F - 60.8 °F 69% 29.81 in 10.0 mi SE 13.8 mph - N/A   Clear
6:35 AM 70.0 °F - 60.8 °F 73% 29.81 in 10.0 mi SE 12.7 mph - N/A   Clear
6:55 AM 69.8 °F - 60.8 °F 73% 29.81 in 10.0 mi ESE 11.5 mph - N/A   Clear
7:15 AM 69.4 °F - 61.0 °F 74% 29.81 in 10.0 mi ESE 10.4 mph - N/A   Clear
7:35 AM 70.7 °F - 61.2 °F 72% 29.81 in 10.0 mi SE 10.4 mph - N/A   Clear
7:55 AM 72.0 °F - 61.2 °F 69% 29.81 in 10.0 mi SSE 12.7 mph - N/A   Clear
8:15 AM 73.4 °F - 61.2 °F 65% 29.81 in 10.0 mi SSE 12.7 mph - N/A   Clear
8:35 AM 74.7 °F - 60.4 °F 61% 29.81 in 10.0 mi SSE 11.5 mph 17.3 mph N/A   Clear
8:55 AM 75.9 °F - 60.3 °F 58% 29.81 in 10.0 mi SSE 10.4 mph - N/A   Clear
9:15 AM 77.0 °F - 59.9 °F 55% 29.81 in 10.0 mi South 12.7 mph - N/A   Clear
9:35 AM 79.0 °F - 59.7 °F 52% 29.80 in 10.0 mi South 13.8 mph 18.4 mph N/A   Clear
9:55 AM 81.5 °F 81.3 °F 56.3 °F 42% 29.80 in 10.0 mi South 16.1 mph 25.3 mph N/A   Clear
10:15 AM 82.4 °F 81.8 °F 56.1 °F 40% 29.79 in 10.0 mi South 17.3 mph 25.3 mph N/A   Clear
10:35 AM 82.6 °F 82.0 °F 56.1 °F 40% 29.79 in 10.0 mi South 16.1 mph 25.3 mph N/A   Clear
10:55 AM 84.2 °F 83.2 °F 56.3 °F 38% 29.79 in 10.0 mi South 17.3 mph 21.9 mph N/A   Clear
11:15 AM 84.7 °F 83.6 °F 55.4 °F 37% 29.79 in 10.0 mi South 19.6 mph 27.6 mph N/A   Clear
11:35 AM 86.0 °F 84.7 °F 55.8 °F 36% 29.79 in 10.0 mi SSW 17.3 mph - N/A   Clear
11:55 AM 86.9 °F 85.6 °F 56.7 °F 36% 29.78 in 10.0 mi South 13.8 mph 23.0 mph N/A   Clear
12:15 PM 87.4 °F 86.1 °F 56.8 °F 35% 29.78 in 10.0 mi South 16.1 mph 20.7 mph N/A   Clear
12:35 PM 88.5 °F 87.1 °F 56.8 °F 34% 29.78 in 10.0 mi South 16.1 mph 20.7 mph N/A   Clear
12:55 PM 88.9 °F 87.5 °F 57.4 °F 34% 29.78 in 10.0 mi SSW 17.3 mph 23.0 mph N/A   Clear
1:15 PM 90.0 °F 88.6 °F 57.4 °F 33% 29.78 in 10.0 mi South 12.7 mph 18.4 mph N/A   Clear
1:35 PM 91.0 °F 89.4 °F 56.8 °F 31% 29.78 in 10.0 mi South 12.7 mph - N/A   Clear
1:55 PM 91.6 °F 90.1 °F 57.0 °F 31% 29.78 in 10.0 mi South 10.4 mph 18.4 mph N/A   Clear
2:15 PM 91.8 °F 90.3 °F 57.4 °F 31% 29.78 in 10.0 mi South 12.7 mph 17.3 mph N/A   Clear
2:35 PM 92.8 °F 91.1 °F 56.7 °F 29% 29.78 in 10.0 mi South 9.2 mph - N/A   Clear
2:55 PM 94.3 °F 93.0 °F 57.7 °F 29% 29.77 in 10.0 mi SSE 13.8 mph - N/A   Clear
3:15 PM 94.8 °F 93.8 °F 57.6 °F 29% 29.76 in 10.0 mi South 10.4 mph 16.1 mph N/A   Clear
3:35 PM 95.9 °F 94.6 °F 57.4 °F 27% 29.76 in 10.0 mi SE 11.5 mph 16.1 mph N/A   Clear
3:55 PM 96.8 °F 95.5 °F 56.7 °F 26% 29.76 in 10.0 mi SSE 9.2 mph - N/A   Clear
4:15 PM 97.2 °F 96.0 °F 56.5 °F 26% 29.75 in 10.0 mi SSE 8.1 mph - N/A   Clear
4:35 PM 98.1 °F 96.8 °F 56.8 °F 25% 29.75 in 10.0 mi SSE 9.2 mph - N/A   Clear
4:55 PM 97.9 °F 96.6 °F 56.5 °F 25% 29.75 in 10.0 mi SSE 9.2 mph - N/A   Clear
5:15 PM 97.9 °F 97.0 °F 57.7 °F 26% 29.74 in 10.0 mi SE 10.4 mph - N/A   Clear
5:35 PM 97.9 °F 97.0 °F 57.4 °F 26% 29.74 in 10.0 mi SSE 9.2 mph - N/A   Clear
5:55 PM 97.9 °F 97.4 °F 58.5 °F 27% 29.74 in 10.0 mi SE 9.2 mph - N/A   Clear
6:15 PM 97.7 °F 97.1 °F 58.5 °F 27% 29.73 in 10.0 mi SE 9.2 mph - N/A   Clear
6:35 PM 93.7 °F 94.5 °F 61.9 °F 35% 29.73 in 10.0 mi ESE 12.7 mph - N/A   Clear
6:55 PM 93.6 °F 93.4 °F 60.4 °F 33% 29.73 in 10.0 mi SE 12.7 mph - N/A   Clear
7:15 PM 92.3 °F 92.0 °F 60.3 °F 34% 29.73 in 10.0 mi SE 16.1 mph 23.0 mph N/A   Clear
7:35 PM 91.4 °F 90.7 °F 59.2 °F 34% 29.73 in 10.0 mi SE 17.3 mph 20.7 mph N/A   Clear
7:55 PM 89.2 °F 88.4 °F 59.2 °F 36% 29.74 in 10.0 mi SE 13.8 mph - N/A   Clear
8:15 PM 87.8 °F 87.4 °F 60.3 °F 39% 29.74 in 10.0 mi SE 11.5 mph - N/A   Clear
8:35 PM 86.2 °F 86.1 °F 60.8 °F 42% 29.75 in 10.0 mi SE 10.4 mph - N/A   Clear
8:55 PM 84.7 °F 84.6 °F 60.3 °F 43% 29.75 in 10.0 mi SE 12.7 mph - N/A   Clear
9:15 PM 82.0 °F 82.5 °F 60.8 °F 48% 29.75 in 10.0 mi ESE 11.5 mph - N/A   Clear
9:35 PM 81.7 °F 81.9 °F 59.2 °F 46% 29.76 in 10.0 mi SE 11.5 mph - N/A   Clear
9:55 PM 82.8 °F 82.2 °F 57.0 °F 41% 29.77 in 10.0 mi SE 12.7 mph - N/A   Clear
10:15 PM 81.9 °F 81.6 °F 56.8 °F 42% 29.78 in 10.0 mi SE 11.5 mph - N/A   Clear
10:35 PM 81.1 °F 81.1 °F 56.7 °F 43% 29.79 in 10.0 mi SE 11.5 mph - N/A   Clear
10:55 PM 80.1 °F 80.4 °F 56.8 °F 45% 29.80 in 10.0 mi SE 10.4 mph 18.4 mph N/A   Clear
11:15 PM 78.3 °F - 59.0 °F 51% 29.81 in 10.0 mi SSE 10.4 mph - N/A   Clear
11:35 PM 76.5 °F - 60.4 °F 58% 29.81 in 10.0 mi SSE 12.7 mph - N/A   Clear
11:55 PM 76.1 °F - 60.4 °F 58% 29.82 in 10.0 mi SSE 9.2 mph - N/A   Clear